Wind_Speed
27 27 28 28 29 29 29 29 30 30 30 31 31 31 31 32 32 33 33 34 34 35 36 36 37 38 39 39 40 41 41 42 43 44 45 45 46 46 46 47 47 47 46
28 28 29 29 30 30 30 30 31 31 31 32 32 32 33 33 34 35 35 36 36 36 37 37 38 39 39 40 41 42 42 43 44 45 46 47 47 48 48 49 49 49 49
29 30 30 31 31 31 31 32 32 32 33 34 34 35 35 36 36 37 37 38 38 38 38 39 39 40 41 42 42 43 43 44 45 46 46 47 48 49 49 50 50 50 51
31 31 32 32 32 32 33 33 33 34 35 35 36 36 37 37 38 39 39 39 40 40 41 41 41 42 42 43 43 44 45 45 46 46 47 48 48 49 50 50 51 51 52
32 32 32 32 33 33 33 34 34 35 35 36 37 37 38 39 40 40 41 41 41 42 43 43 43 44 44 44 45 45 46 46 47 48 48 49 49 50 50 51 51 52 52
32 33 33 33 33 34 34 35 35 35 36 37 38 39 39 40 41 41 42 43 43 44 44 45 45 45 46 46 47 47 48 48 49 49 50 50 51 51 51 52 52 53 53
32 33 33 34 34 35 35 36 36 37 37 38 39 40 41 41 42 43 44 45 45 46 46 46 47 47 47 48 49 49 50 50 51 51 52 52 53 53 54 54 55 55 55
33 33 34 34 35 36 36 37 37 38 39 40 41 41 41 42 43 44 45 47 47 48 48 48 49 49 49 50 50 51 52 52 53 53 54 54 55 56 56 57 57 58 58
34 34 35 36 36 37 37 38 39 40 41 42 42 43 43 43 43 44 45 47 48 48 49 50 50 51 52 52 53 53 54 54 55 55 56 56 57 57 58 58 59 59 60
35 36 36 37 37 38 39 40 41 42 43 43 44 45 45 45 45 43 44 46 47 48 49 51 52 53 53 54 55 55 56 57 57 57 58 58 58 59 59 60 61 61 62
36 37 37 38 38 39 41 42 43 43 44 44 45 45 46 47 47 47 46 46 47 49 50 51 52 53 54 55 56 57 57 58 59 59 60 60 61 61 62 62 63 63 64
37 38 38 39 40 41 43 43 44 45 45 46 46 47 48 48 49 50 49 49 49 49 50 52 54 55 55 56 57 58 59 59 60 61 62 62 63 63 64 64 65 65 66
38 39 39 41 42 43 44 45 46 46 47 48 48 49 50 51 52 52 52 52 51 51 52 53 55 56 57 58 59 60 60 61 62 63 63 64 65 66 66 67 67 67 68
39 40 41 42 43 44 45 46 47 48 48 49 50 51 52 53 53 54 54 55 55 54 54 55 56 57 59 60 61 62 62 63 64 65 66 67 67 68 68 69 69 70 70
41 42 43 44 44 45 47 48 48 49 50 51 52 53 53 54 55 56 56 57 58 57 57 57 59 60 61 62 63 64 65 66 66 67 68 68 69 69 70 71 72 73 73
42 43 44 45 46 47 48 49 50 51 51 52 53 54 55 56 57 57 58 59 60 61 61 61 62 63 65 66 67 68 68 69 69 70 71 71 72 73 73 74 75 75 76
44 45 45 46 47 49 50 51 51 52 53 53 54 55 56 57 58 59 60 61 63 64 64 63 65 67 68 70 71 72 72 73 73 73 74 75 76 76 77 77 77 77 76
45 46 47 48 49 50 51 52 52 53 54 55 56 57 58 59 60 61 63 64 65 66 67 67 68 70 72 73 74 75 75 76 76 77 78 78 79 79 79 78 77 75 74
46 47 48 50 51 52 52 53 54 55 56 56 57 58 60 61 62 64 65 67 68 69 71 71 72 73 75 76 76 77 78 78 79 79 80 80 80 79 78 76 73 71 69
47 48 50 51 52 53 53 54 55 56 57 58 59 61 62 64 65 67 68 70 71 72 74 75 76 76 76 77 78 78 78 79 79 79 79 78 77 75 72 70 68 66 65
49 50 51 52 53 54 55 56 58 58 59 60 62 63 65 67 68 70 71 72 74 75 77 77 77 76 76 76 77 77 77 76 75 74 73 71 69 66 64 62 60 58 57
50 51 52 53 54 55 57 58 60 60 62 63 65 66 68 69 70 72 73 74 76 78 79 79 78 77 76 76 76 75 74 72 69 67 65 62 60 57 56 54 53 51 50
51 51 53 54 56 58 59 60 62 63 64 66 68 69 70 72 73 74 75 76 78 78 79 79 78 77 76 75 75 73 71 68 64 61 59 55 53 51 50 48 47 45 44
52 53 55 56 58 59 61 63 64 66 67 69 70 71 73 74 75 76 77 78 78 78 78 78 78 76 75 73 72 69 66 63 59 55 53 50 48 46 45 43 42 41 40
53 55 56 58 60 61 64 65 67 69 70 71 72 73 74 75 76 78 79 79 77 76 76 76 75 74 72 70 67 65 60 57 52 48 47 45 43 41 40 39 38 37 35
54 56 58 60 62 64 66 68 70 71 72 73 74 74 75 76 77 77 78 77 76 74 74 72 71 69 67 64 61 58 54 51 47 43 42 41 38 37 34 34 34 33 32
Wind_Direction
288 289 289 290 290 290 291 291 290 290 289 289 288 287 287 286 286 285 285 284 282 282 281 280 279 278 277 276 275 274 273 272 271 270 269 268 268 267 266 266 265 265 264
289 289 289 290 291 291 291 291 291 291 290 290 289 289 288 288 288 288 287 286 284 283 282 282 281 280 279 278 277 276 275 274 272 271 270 269 268 267 267 266 265 265 264
289 289 289 290 291 291 291 292 292 292 292 292 291 291 290 290 289 289 288 287 286 285 284 283 282 281 280 279 278 277 276 275 274 273 272 271 270 269 268 267 266 265 264
289 289 290 291 291 292 292 292 292 292 293 293 292 292 292 291 291 290 290 289 288 287 286 285 283 282 281 281 280 278 277 276 275 274 273 272 271 270 270 268 267 266 265
289 289 290 291 291 291 292 292 292 293 293 293 293 293 293 292 292 291 290 290 289 288 287 286 285 283 282 281 280 279 278 277 276 275 274 273 272 271 270 269 268 267 266
289 290 290 290 291 291 292 293 293 293 293 293 294 294 293 293 293 292 291 290 289 288 287 286 285 284 283 282 281 280 279 278 277 276 275 274 273 272 271 270 269 268 266
289 290 290 291 291 292 292 293 294 294 294 294 294 294 294 293 293 292 292 291 290 289 288 287 286 285 284 283 281 280 279 278 277 276 275 274 273 272 271 270 269 268 267
289 290 290 291 292 293 293 294 294 294 294 294 294 294 293 293 293 293 293 292 291 290 289 288 287 286 285 284 283 281 280 279 278 277 277 276 275 274 272 271 270 269 268
289 290 290 291 292 293 294 294 295 295 295 295 295 295 294 293 292 292 292 292 291 291 290 289 288 287 286 285 284 283 282 281 280 279 278 277 276 275 273 272 271 270 269
289 290 291 292 292 293 294 295 295 296 296 296 296 296 295 294 293 292 291 291 290 290 289 289 288 288 287 286 285 284 283 282 281 280 279 278 277 276 274 273 272 271 270
290 290 291 292 293 294 295 295 296 296 297 297 297 296 296 296 295 295 293 292 290 290 289 289 288 288 287 287 286 285 284 283 282 281 280 279 278 277 276 275 273 272 271
289 290 291 293 294 295 296 296 297 297 297 297 297 297 297 296 296 296 295 293 292 291 290 289 288 288 287 287 286 285 285 284 283 282 281 280 279 278 277 276 275 273 272
290 291 292 293 295 296 296 297 298 298 298 298 298 298 297 297 297 296 295 294 293 292 291 290 289 289 288 288 287 286 286 285 284 282 281 280 280 279 278 277 276 274 273
290 291 293 294 295 296 297 298 298 298 298 299 299 298 298 298 298 297 296 296 295 294 293 292 291 290 290 289 288 288 287 286 285 284 283 282 281 280 279 278 276 275 274
290 292 293 294 295 296 297 298 298 299 299 299 299 299 299 298 298 297 297 297 296 295 294 294 292 292 291 290 290 289 288 287 286 285 284 283 282 281 280 279 278 276 275
290 291 293 294 295 296 297 298 299 299 299 300 300 300 299 299 298 298 298 297 297 297 296 295 294 293 293 292 291 291 290 288 287 286 285 284 283 283 282 281 280 278 276
290 292 293 294 295 297 298 299 299 299 300 300 300 300 300 299 299 298 298 298 298 297 297 296 296 295 294 294 293 292 291 290 289 288 287 286 285 284 284 282 281 279 277
291 293 294 295 297 298 299 299 299 299 299 300 300 300 300 300 299 299 298 298 298 298 297 297 296 295 295 294 293 292 291 290 290 289 288 287 286 286 284 283 281 279 276
292 293 295 296 298 299 299 299 299 299 300 300 300 300 300 300 299 299 299 298 298 298 298 297 297 296 295 294 293 292 291 291 290 289 288 288 287 286 284 282 280 277 275
293 294 296 297 298 299 299 299 299 300 300 300 300 301 300 300 300 300 299 299 298 298 298 298 297 296 295 294 293 293 292 291 291 290 289 289 287 285 283 281 279 277 274
293 295 296 298 298 299 299 300 300 301 301 301 301 301 301 301 300 300 300 299 299 299 299 298 298 297 296 295 294 293 293 293 292 291 290 289 287 285 282 280 278 276 273
295 296 297 298 299 300 300 300 301 301 301 301 301 301 301 301 301 300 300 300 300 300 299 299 298 297 296 295 295 295 294 293 292 291 289 288 285 284 282 280 277 275 272
296 297 298 299 300 300 301 301 301 302 302 302 302 302 302 302 301 301 301 301 301 300 299 299 298 298 297 296 295 295 294 294 293 291 289 287 284 283 281 279 277 274 272
297 298 299 300 301 301 301 302 302 302 303 303 303 303 302 302 302 301 301 301 301 300 299 298 298 298 297 297 296 295 294 293 292 290 287 285 283 282 280 277 275 273 272
298 299 300 301 302 302 302 302 303 303 303 303 303 303 303 303 303 302 302 302 301 300 299 299 299 298 298 297 296 294 293 292 291 288 286 284 282 281 278 275 273 272 271
299 300 301 302 302 303 303 303 303 304 304 304 304 304 304 304 303 303 302 302 302 301 300 299 299 298 297 296 295 294 292 291 290 287 285 283 281 279 275 273 272 270 269
Height
5835 5833 5831 5829 5827 5825 5823 5820 5818 5816 5813 5811 5809 5807 5805 5803 5801 5799 5798 5796 5794 5793 5791 5789 5788 5786 5785 5784 5782 5781 5780 5779 5779 5778 5777 5777 5776 5776 5776 5776 5776 5776 5776
5829 5827 5825 5823 5821 5818 5816 5814 5811 5809 5807 5804 5802 5800 5797 5795 5793 5791 5789 5788 5786 5784 5782 5781 5779 5777 5776 5774 5773 5771 5770 5769 5768 5767 5767 5766 5766 5765 5765 5765 5765 5765 5765
5823 5821 5819 5817 5814 5812 5810 5807 5805 5802 5800 5797 5795 5792 5790 5787 5785 5783 5780 5778 5777 5775 5773 5771 5769 5768 5766 5764 5763 5761 5760 5759 5757 5756 5755 5755 5754 5754 5753 5753 5753 5753 5753
5817 5814 5812 5810 5807 5805 5802 5800 5797 5795 5792 5790 5787 5784 5781 5779 5776 5774 5771 5769 5767 5765 5763 5761 5759 5757 5755 5754 5752 5750 5749 5748 5746 5745 5744 5743 5742 5742 5741 5741 5741 5741 5741
5810 5808 5805 5803 5800 5798 5795 5793 5790 5787 5785 5782 5779 5776 5773 5770 5767 5765 5762 5759 5757 5755 5752 5750 5748 5746 5745 5743 5741 5739 5737 5736 5734 5733 5732 5731 5730 5729 5729 5728 5728 5728 5728
5803 5801 5798 5796 5793 5791 5788 5785 5783 5780 5777 5774 5771 5768 5765 5761 5758 5755 5752 5749 5747 5744 5742 5740 5737 5735 5733 5731 5729 5727 5725 5724 5722 5721 5719 5718 5717 5716 5715 5715 5714 5714 5714
5796 5794 5791 5789 5786 5784 5781 5778 5775 5772 5769 5766 5763 5759 5756 5752 5749 5745 5742 5739 5736 5733 5731 5728 5726 5723 5721 5719 5717 5715 5713 5711 5709 5708 5706 5705 5703 5702 5702 5701 5700 5700 5700
5789 5786 5784 5781 5779 5776 5773 5770 5767 5764 5760 5757 5754 5751 5748 5745 5740 5736 5731 5728 5725 5722 5719 5716 5713 5711 5708 5706 5704 5702 5699 5697 5696 5694 5692 5690 5689 5688 5687 5686 5685 5685 5685
5781 5779 5776 5774 5771 5768 5765 5762 5758 5755 5752 5748 5744 5741 5738 5735 5731 5727 5722 5717 5713 5710 5707 5704 5701 5698 5695 5692 5690 5688 5685 5683 5681 5679 5677 5675 5674 5672 5671 5670 5669 5669 5669
5774 5771 5768 5766 5763 5759 5756 5753 5749 5746 5742 5738 5734 5730 5726 5723 5720 5718 5714 5708 5703 5699 5695 5691 5688 5685 5681 5679 5676 5673 5670 5668 5665 5663 5661 5659 5657 5656 5655 5653 5653 5652 5652
5766 5763 5760 5757 5754 5751 5747 5744 5740 5736 5732 5728 5724 5720 5716 5712 5707 5705 5702 5698 5693 5688 5683 5679 5675 5671 5668 5664 5661 5658 5655 5652 5650 5647 5645 5642 5640 5639 5637 5636 5635 5634 5633
5757 5754 5751 5748 5745 5741 5738 5734 5730 5726 5721 5717 5713 5708 5704 5700 5696 5692 5689 5685 5681 5676 5671 5666 5662 5658 5654 5650 5646 5643 5640 5637 5633 5630 5628 5625 5623 5621 5619 5617 5616 5615 5614
5749 5746 5742 5739 5735 5732 5728 5723 5719 5715 5710 5706 5701 5697 5692 5688 5683 5679 5675 5671 5668 5664 5659 5653 5647 5643 5638 5634 5631 5627 5623 5620 5616 5613 5610 5607 5604 5602 5600 5598 5596 5595 5594
5739 5736 5733 5729 5725 5721 5717 5713 5708 5704 5699 5694 5690 5685 5680 5675 5670 5665 5660 5656 5653 5650 5645 5639 5633 5627 5622 5618 5614 5609 5606 5602 5598 5594 5591 5587 5584 5582 5579 5577 5575 5574 5573
5730 5726 5723 5719 5715 5711 5707 5702 5697 5692 5688 5682 5677 5672 5667 5662 5657 5651 5646 5641 5637 5634 5631 5625 5618 5612 5606 5601 5596 5591 5587 5583 5578 5574 5570 5566 5563 5560 5557 5555 5553 5551 5550
5720 5716 5713 5709 5705 5700 5695 5691 5686 5680 5675 5670 5665 5659 5654 5648 5643 5637 5631 5626 5620 5616 5613 5609 5601 5594 5588 5582 5577 5571 5566 5562 5557 5552 5548 5544 5540 5537 5534 5531 5528 5526 5525
5710 5706 5702 5698 5693 5689 5684 5679 5674 5668 5663 5657 5652 5646 5640 5634 5628 5622 5616 5610 5604 5598 5594 5592 5583 5576 5569 5563 5556 5550 5544 5539 5535 5529 5524 5519 5515 5512 5508 5505 5502 5500 5498
5699 5695 5691 5687 5682 5677 5672 5666 5661 5656 5650 5644 5638 5632 5626 5619 5613 5607 5600 5594 5587 5581 5575 5572 5566 5557 5550 5542 5535 5529 5522 5516 5511 5505 5499 5494 5490 5486 5482 5479 5476 5473 5472
5689 5684 5680 5675 5670 5665 5659 5654 5648 5642 5636 5630 5624 5618 5611 5604 5598 5590 5583 5576 5569 5562 5555 5550 5545 5537 5529 5521 5513 5507 5500 5493 5487 5480 5475 5469 5464 5459 5456 5452 5450 5448 5447
5677 5673 5668 5663 5657 5652 5646 5640 5635 5629 5623 5616 5609 5603 5596 5588 5581 5573 5566 5558 5550 5543 5535 5528 5522 5516 5507 5498 5490 5483 5477 5470 5463 5456 5449 5443 5438 5434 5431 5428 5426 5425 5424
5666 5661 5656 5650 5644 5639 5633 5627 5621 5614 5608 5601 5594 5587 5579 5571 5563 5555 5547 5539 5530 5522 5514 5506 5500 5493 5485 5476 5468 5460 5453 5447 5440 5432 5426 5420 5415 5412 5408 5406 5404 5403 5403
5653 5648 5643 5637 5631 5625 5619 5612 5606 5599 5593 5585 5578 5570 5562 5554 5545 5536 5528 5519 5510 5500 5492 5483 5477 5470 5463 5453 5445 5437 5430 5424 5420 5413 5405 5401 5395 5392 5389 5387 5386 5385 5385
5640 5635 5630 5624 5618 5611 5604 5597 5590 5583 5576 5568 5560 5552 5544 5535 5525 5516 5508 5499 5490 5479 5469 5460 5453 5446 5438 5431 5422 5416 5408 5403 5398 5392 5386 5384 5379 5376 5373 5372 5370 5370 5370
5628 5622 5616 5610 5603 5597 5589 5582 5574 5566 5559 5551 5542 5533 5524 5515 5504 5495 5486 5478 5469 5460 5449 5439 5431 5424 5415 5407 5399 5393 5388 5383 5380 5374 5369 5367 5364 5361 5359 5358 5357 5356 5356
5614 5609 5602 5596 5589 5581 5573 5565 5557 5549 5541 5532 5523 5514 5504 5494 5485 5473 5464 5456 5448 5438 5428 5419 5410 5401 5394 5386 5379 5373 5369 5364 5362 5359 5354 5351 5350 5348 5347 5346 5345 5344 5345
5601 5595 5588 5581 5573 5566 5557 5548 5538 5530 5523 5514 5505 5495 5485 5474 5463 5451 5441 5432 5424 5416 5407 5399 5390 5382 5374 5368 5361 5355 5351 5348 5346 5345 5342 5338 5337 5335 5336 5335 5334 5334 5334